{"data":{"norad_id":57825,"epoch":"2026-09-20T13:22:52.167936Z","epoch_age_seconds":129649,"freshness":"FRESH","line1":"1 57825U 23138T   26263.55754824  .00000429  00000+0  25123-4 0  9994","line2":"2 57825  42.9985 213.4286 0001171 265.5850  94.4868 15.27578861168434","mean_motion":15.27578861,"eccentricity":0.0001171,"inclination_deg":42.9985,"raan_deg":213.4286,"arg_perigee_deg":265.585,"mean_anomaly_deg":94.4868,"bstar":2.5123e-5,"rev_number":16843,"period_min":94.266819001235,"perigee_km":482.2490613263,"apogee_km":483.85595190875,"semimajor_km":6861.1895066175,"source":"CELESTRAK","updated_at":"2026-09-21T09:00:33.710248Z"}}